* Astronomy

Members Login
Post Info TOPIC: Comet P/1999 XB69 = 2010 C2 (LINEAR)


L

Posts: 131433
Date:
Comet P/1999 XB69 = 2010 C2 (LINEAR)
Permalink  
 


Orbital elements:
P/1999 XB69 = 2010 C2 (LINEAR)
Epoch 2000 Feb. 26.0 TT = JDT 2451600.5
T 2000 Feb. 17.03714 TT MPC
q 1.6392585 (2000.0) P Q
n 0.10485480 Peri. 220.17973 -0.43157808 -0.88165151
a 4.4539347 Node 256.16691 +0.86986569 -0.35070921
e 0.6319527 Incl. 11.33647 +0.23890173 -0.31574304
P 9.40

MPEC 2010 - P21


__________________
Page 1 of 1  sorted by
 
Quick Reply

Please log in to post quick replies.



Create your own FREE Forum
Report Abuse
Powered by ActiveBoard